Погода в Поныри

Погода в Поныри : погода сейчас, прогноз погоды и архив. Всё, что Вы хотите узнать о погоде в Поныри!

Хотите узнать прогноз погоды в Поныри? Тогда Вам сюда: Погода в Поныри

Поиск расширенной информации на нашем сайте:

Другие новости

Новости СМИ2

Главная страница сайта

Новости сайта

03.07.2017

Напоминаем, что на нашем специализированном сайте Метеоцентр.Азия вы можете получить высокодетализированные автоматические прогнозы погоды по пунктам России, СНГ и мира в авиационном формате (включающие направление и скорость ветра, видимость, явления погоды, количество и форму облачности, нижнюю и верхнюю границу облачности).


Погода в Поныри - сегодня

Время (UTC), дата Ветер
(°,м/с) 
Видим.   Явления Облачность Т
(°С)
Тd
(°С)
f(%) Тe
(°С)
Pmin
(гПа)
dP
(гПа)
Po
(мм)
O2
(г/м3)
Тmin Tmax R s Состояние
почвы
03 18.07.17 240 (ЮЗ) 10 км    ясно 
+11 +9.8 92 +13  1019.6  -0.1  742  286  +9.3         
06 18.07.17 260 (З) 20000 м    ясно 
+19.3 +11.5 61 +23  1019.2  0.4  742  277  +9.3         
09 18.07.17 250 (З) 20000 м    3/3 600 м 
[Cu hum]
+23.8 +10.4 43 +26  1018.5  -0.3  742  273           
12 18.07.17 260 (З) 20000 м    4/3 600 м 
[Cu med, cong]
+25.5 +10.7 39 +28  1017.8  -0.4  742  271           
15 18.07.17 270 (З) 20000 м    1/1 600 м 
[Sc diur, vesp]
+24.7 +11 42 +27  1016.8  -1.1  741  272           
18 18.07.17 260 (З) 20000 м    4/0 средняя 
[Ac trans]
+20.8 +11.9 57 +25  1017  -0.2  741  275    +25.5       
21 18.07.17 270 (З) 20000 м    8/0 средняя 
[Ac trans]
+17.9 +12.5 71 +24  1017.2  741  278           
00 19.07.17 330 (СЗ) 10 км    3/0 средняя 
[Ac trans]
+15.1 +12.2 83 +20  1017.8  0.3  741  281           
03 19.07.17 тихо ()   10 км    8/0 средняя 
[Ac trans]
+14.8 +12.1 84 +19  1018  0.1  741  281  +13         
06 19.07.17 010 (С) 20000 м    6/6 600 м кучево-дожд. 
[Cb calv]
+18.5 +13 70 +25  1018.8  1.2  742  277  +13         
09 19.07.17 010 (С) 20000 м    3/3 600 м 
[Cu hum]
+21 +10.9 52 +24  1018.6  742  276           
12 19.07.17 320 (СЗ) 20000 м    8/8 600 м 
[Cu med, cong]
+22.5 +11.7 50 +26  1017.7  -0.7  742  274           
15 19.07.17 350 (С) 20000 м    3/3 600 м 
[Cu hum]
+22.1 +10.4 47 +24  1017.2  -0.5  741  274           
18 19.07.17 030 (СВ) 20000 м    4/0 верхняя 
[Ci fib]
+18.5 +12.4 68 +25  1018  0.4  742  277    +23.2       
21 19.07.17 тихо ()   10 км    ясно 
+13 +11.5 91 +16  1018.2  -0.3  741  283           
00 20.07.17 тихо ()   10 км    ясно 
+11.8 +10.6 92 +14  1018.4  741  284           
03 20.07.17 100 (В) 10 км    ясно 
+11.8 +9.8 88 +14  1018.3  -0.1  741  284  +11.4         
06 20.07.17 140 (ЮВ) 20000 м    ясно 
+20.4 +11.3 56 +24  1016.8  -0.6  741  276  +11.4         
09 20.07.17 050 (СВ) 20000 м    6/6 600 м 
[Cu med, cong]
+22.8 +8.5 40 +23  1016  -0.6  740  274           
12 20.07.17 140 (ЮВ) 20000 м    9/8 600 м верхняя 
[Cu med, cong|Ci fib]
+24.3 +6.2 31 +24  1014.9  -0.9  740  273           
15 20.07.17 150 (ЮВ) 20000 м    3/3 600 м 
[Cu hum]
+24.2 +7.3 34 +24  1014  -0.9  739  272           
18 20.07.17 070 (В) 20000 м    8/0 верхняя 
[Ci sp]
+19.2 +13.6 70 +28  1014.4  739  275    +25.5       
21 20.07.17 тихо ()   10 км    ясно 
+14 +12.3 89 +19  1014.5  -0.4  739  281           
00 21.07.17 тихо ()   10 км    ясно 
+11.5 +10.5 94 +14  1014.8  739  284           
03 21.07.17 тихо ()   10 км    3/0 средняя 
[Ac trans]
+14.8 +13 89 +21  1014.7  0.2  739  280  +11.2         
Время (UTC), дата Ветер
(°,м/с) 
Видим.   Явления Облачность Т
(°С)
Тd
(°С)
f(%) Тe
(°С)
Pmin
(гПа)
dP
(гПа)
Po
(мм)
O2
(г/м3)
Тmin Tmax R s Состояние
почвы

Для получения пояснительной информации подведите курсор к названию столбца.

ПОГОДА в Поныри - архив

Всё, что Вы хотите узнать о погоде в Поныри - удобно и подробно!

Выберите нужную дату (начиная с 1 января 2015* года) и нажмите кнопку "Найти".
Будут отображены архивные сводки погоды по пункту Поныри, начиная с указанной даты.


Отображать данные в формате CSV (для использования в таблицах Excel)


Внимание! Наш архив погоды предназначен исключительно для личного некоммерческого использования в познавательных целях. Если Вам необходимы официальные справки о состоянии погоды (для производственных, юридических, коммерческих и т.п. целей), обращайтесь в органы Росгидромета.

*Примечание: данная дата относится к архиву по метеостанциям СССР (Россия, СНГ, Балтия).
Архив по метеостанциям Зарубежной Европы и Азии (кроме Китая) хранится 10 дней, по другим регионам земного шара (Китай, Африка, Америка, Австралия, Океания) - 1 день.

Поныри - район местоположения метеостанции


Название, широта, долгота, высота метеостанции:
Поныри 52.3°ш. 36.3°д. 251 м над ур. моря [Российская Федерация]

Дополнительная информация

В oтличие oт бoльшинства пoгoдных сайтoв мы публикуем пoдрoбную метеoинфoрмацию в детальнoм прoфессиoнальнoм фoрмате.

Характеристики температуры и влажнoсти вoздуха измеряются на высoте 2 м в тени вдали oт зданий и деревьев.
Скoрoсть ветра измеряется на высoте 10 м (на урoвне рoста челoвека скoрoсть ветра ниже в 1.5-2 раза). Если метеoстанция нахoдится в гoрoде или в лесу, тo скoрoсть ветра занижена на 2-4 м/с пo сравнению с oткрытым местoм. Скoрoсть ветра над акватoриями крупных рек и oзёр, а также на вершинах хoлмoв на 2-5 м/с выше, чем в oбычных услoвиях.
Атмoсфернoе давление в разных тoчках местнoсти мoжет значительнo oтличаться oт давления на метеoстанции, в зависимoсти oт услoвий рельефа (при пoдъёме на 10 м давление пoнижается примернo на 1 мм рт.ст.).